哨兵2C(SENTINEL 2C)

导读

SENTINEL-2C 是欧洲哥白林计划(Copernicus Programme)中的一部分,由欧洲航天局(ESA)开发。该卫星属于 SENTINEL-2 系列,旨在提供高分辨率的多光谱地球观测数据,用于环境监测、农业管理、森林覆盖和灾害评估等领域。SENTINEL-2C 搭载多光谱成像仪(MSI),具备 13 个光谱波段,空间分辨率为 10 至 60 米,重访周期短,与 SENTINEL-2A 和 2B 卫星协同工作,提升全球观测能力。

基本信息
目录编号:
60989
目录名称:
SENTINEL-2C
国际标识:
2024-157A
轨道中心:
EARTH
卫星名称:
哨兵2C(SENTINEL 2C)
卫星全名:
哨兵2C(SENTINEL 2C)
卫星状态:
在轨 (已飞行645 天)
发射日期:
2024-09-05 UTC
国别 :
(ESA)
星等 :
--
轨道信息
数据来源 国际轨道数据
星历时间: 2026-06-12T02:54:37+0800
21小时前
查看轨道信息
半长轴: 7167.141km
偏心率: 0.0001109
轨道倾角: 98.569°
近地点辐角 80.097°
升交点赤经 237.646°
平近点角 280.033°
近地点: 788.209km
远地点: 789.799km
周期: 100.642分钟
每日圈数: 14.308163
详细信息
使用方式:
暂无
2D轨道图
3D轨道图
轨道高度分析图
轨道倾角分析图
轨道综合分析图
查看轨道综合分析图